Regional Weather Roundup
Issued by NWS

Home | Current Version | Previous Version | Graphics & Text | Print | Product List | Glossary On
Versions: 1 2 3 4 5 6 7 8 9 10 11 12 13 14 15 16 17 18 19 20 21 22 23 24 25 26 27 28 29 30 31 32 33 34 35 36 37 38 39 40 41 42 43 44 45 46 47 48 49 50
000
ASUS45 KCYS 062110
RWRWY

WYOMING REGIONAL WEATHER ROUNDUP
NATIONAL WEATHER SERVICE CHEYENNE WY
300 PM MDT FRI MAY 06 2016

NOTE:  "FAIR" INDICATES FEW OR NO CLOUDS BELOW 12,000 FEET
WITH NO SIGNIFICANT WEATHER AND/OR OBSTRUCTIONS TO VISIBILITY.

WYZ001-062200-
YELLOWSTONE NATIONAL PARK

CITY           SKY/WX    TMP DP  RH WIND       PRES   REMARKS
LK YELLOWSTONE   N/A     53  33  46 VRB7      30.17F
W YELLOWSTONE  NOT AVBL

$$
WYZ002>013-054>058-071-098>099-062200-
NORTHERN WYOMING

CITY           SKY/WX    TMP DP  RH WIND       PRES   REMARKS
JACKSON        CLOUDY    45  45 100 CALM      30.12
CODY           FAIR      57  41  54 NW20G33   30.14S
GREYBULL       FAIR      77  37  23 E18G25    29.97F
WORLAND        FAIR      73  43  33 W23G29    30.00S
SHERIDAN       CLOUDY    63  46  54 NW8       30.15F
BUFFALO          N/A     60  42  51 NW23G31   30.16S
GILLETTE       FAIR      67  45  45 N28G35    30.08S
HULETT         FAIR      68  43  40 NE15G23   30.08F
NEWCASTLE      FAIR      79  28  15 NE22G29   29.95F

$$
WYZ014>020-022>026-101>103-062200-
CENTRAL WYOMING

CITY           SKY/WX    TMP DP  RH WIND       PRES   REMARKS
BIG PINEY      FAIR      52  46  80 NE15      30.07F
PINEDALE       FAIR      48  43  81 N10       30.08F
DUBOIS         DRIZZLE   48  43  81 E5        30.13F
LANDER         LGT RAIN  53  46  77 W14       30.08F
RIVERTON       CLOUDY    61  40  45 NE12      30.08S
CASPER         FAIR      67  44  43 NE25G38   30.03F
DOUGLAS        FAIR      73  46  38 NE20G30   29.98F

$$
WYZ021-027>030-104>119-062200-
SOUTHERN WYOMING

CITY           SKY/WX    TMP DP  RH WIND       PRES   REMARKS
EVANSTON       CLOUDY    53  38  56 E20G30    29.93F
KEMMERER         N/A     54  41  62 NE33G43   29.97F
FORT BRIDGER   CLOUDY    57  45  62 NE28G36   29.96F THUNDER
ROCK SPRINGS   FAIR      61  43  51 NE26G35   29.95F
DIXON          FAIR      74  32  21 E13G21    29.93F
RAWLINS        FAIR      65  35  33 NE15      30.03F
SARATOGA       FAIR      61  39  44 NW9G18    30.02F
LARAMIE        PTSUNNY   62  39  42 W12       30.04R
CHEYENNE       FAIR      73  43  33 S16       29.97F
TORRINGTON     FAIR      79  41  25 E14       29.88F
PINE BLUFFS    FAIR      79  41  25 SE13      29.92F

$$



USA.gov is the U.S. government's official web portal to all federal, state and local government web resources and services.